Location: Acts Church of Fort Worth
(32.6786°N, 97.2668°W)
Time: 08:14:59
(UTC+00:00)

Cosmos 1339 Rocket - Pass Details

Date: 18 January 2026
Orbit: 940 x 1006 km, 82.9° (Epoch: 9 February)

Event Time Altitude Azimuth Distance (km) Brightness Sun altitude
Rises 00:42:58 0° 176° (S) 3,662 7.7 -11.7°
Reaches altitude 10° 00:45:30 10° 173° (S) 2,708 7.0 -12.2°
Maximum altitude 00:51:36 64° 93° (E) 1,055 4.4 -13.4°
Drops below altitude 10° 00:57:39 10° 13° (NNE) 2,681 6.5 -14.6°
Sets 01:00:09 0° 10° (N) 3,622 7.2 -15.1°
